This is the latest recevied weather packets stored in our database for station/object KG7QQL. If no packets are shown the sender has not sent any weather packets the latest 10 day(s).
| Time | Temp. | Humidity | Pressure | Rain* | Wind** | Luminosity | Snow |
|---|---|---|---|---|---|---|---|
| 1777191846 | 8.33° C | 72% | - | 0 mm | - | - | - |
| 1777191542 | 8.33° C | 73% | - | 0 mm | - | - | - |
| 1777191237 | 8.33° C | 72% | - | 0 mm | - | - | - |
| 1777190935 | 7.78° C | 74% | - | 0 mm | - | - | - |
| 1777190632 | 8.33° C | 73% | - | 0 mm | - | - | - |
| 1777190328 | 8.33° C | 74% | - | 0 mm | - | - | - |
| 1777190023 | 8.33° C | 75% | - | 0 mm | - | - | - |
| 1777189721 | 8.33° C | 79% | - | 0 mm | - | - | - |
| 1777189420 | 8.89° C | 80% | - | 0 mm | - | - | - |
| 1777189116 | 8.89° C | 80% | - | 0 mm | - | - | - |
| 1777188813 | 8.33° C | 80% | - | 0 mm | - | - | - |
| 1777188509 | 8.33° C | 79% | - | 0 mm | - | - | - |
| 1777188208 | 8.89° C | 79% | - | 0 mm | - | - | - |
| 1777187905 | 8.89° C | 79% | - | 0 mm | - | - | - |
| 1777187600 | 8.89° C | 79% | - | 0 mm | - | - | - |
| 1777187295 | 8.89° C | 77% | - | 0 mm | - | - | - |
| 1777186991 | 8.89° C | 75% | - | 0 mm | - | - | - |
| 1777186687 | 9.44° C | 73% | - | 0 mm | - | - | - |
| 1777186382 | 9.44° C | 70% | - | 0 mm | - | - | - |
| 1777186082 | 9.44° C | 69% | - | 0 mm | - | - | - |
| 1777185777 | 9.44° C | 67% | - | 0 mm | - | - | - |
| 1777185475 | 9.44° C | 66% | - | 0 mm | - | - | - |
| 1777185170 | 9.44° C | 63% | - | 0 mm | - | - | - |
| 1777184865 | 10° C | 60% | - | 0 mm | - | - | - |
| 1777184560 | 10° C | 57% | - | 0 mm | - | - | - |
* Rain latest hour (hover to see other rain measurements)
** Current wind speed in m/s (hover to see current wind gust speed)